This is the latest recevied weather packets stored in our database for station/object K7TSD. If no packets are shown the sender has not sent any weather packets the latest 10 day(s).
| Time | Temp. | Humidity | Pressure | Rain* | Wind** | Luminosity | Snow |
|---|---|---|---|---|---|---|---|
| 1777771542 | 15° C | 48% | 1014.3 hPa | 0 mm | - | 40 W/m² | - |
| 1777771238 | 15° C | 46% | 1014 hPa | 0 mm | - | 45 W/m² | - |
| 1777770935 | 15.56° C | 47% | 1013.9 hPa | 0 mm | - | 55 W/m² | - |
| 1777770632 | 15.56° C | 46% | 1014 hPa | 0 mm | - | 84 W/m² | - |
| 1777770328 | 15.56° C | 46% | 1014.2 hPa | 0 mm | - | 60 W/m² | - |
| 1777770026 | 15.56° C | 44% | 1014.2 hPa | 0 mm | - | 69 W/m² | - |
| 1777769723 | 16.11° C | 45% | 1014 hPa | 0 mm | - | 98 W/m² | - |
| 1777769420 | 16.11° C | 43% | 1014 hPa | 0 mm | - | 144 W/m² | - |
| 1777769116 | 15.56° C | 44% | 1014.2 hPa | 0 mm | - | 125 W/m² | - |
| 1777768815 | 16.11° C | 45% | 1014.3 hPa | 0 mm | - | 96 W/m² | - |
| 1777768511 | 16.11° C | 44% | 1014.2 hPa | 0 mm | - | 131 W/m² | - |
| 1777768208 | 16.11° C | 46% | 1013.9 hPa | 0 mm | - | 119 W/m² | - |
| 1777767905 | 16.11° C | 46% | 1014.2 hPa | 0 mm | - | 129 W/m² | - |
| 1777767601 | 16.11° C | 45% | 1014.3 hPa | 0 mm | - | 107 W/m² | - |
| 1777767298 | 16.11° C | 46% | 1014.2 hPa | 0 mm | - | 95 W/m² | - |
| 1777766995 | 16.67° C | 45% | 1014.2 hPa | 0 mm | - | 103 W/m² | - |
| 1777766692 | 16.67° C | 43% | 1014 hPa | 0 mm | - | 118 W/m² | - |
| 1777766390 | 16.67° C | 43% | 1014 hPa | 0 mm | - | 131 W/m² | - |
| 1777766086 | 16.67° C | 43% | 1013.8 hPa | 0 mm | - | 139 W/m² | - |
| 1777765784 | 16.67° C | 42% | 1014.2 hPa | 0 mm | - | 161 W/m² | - |
| 1777765480 | 16.67° C | 41% | 1014.3 hPa | 0 mm | - | 177 W/m² | - |
| 1777765178 | 16.67° C | 40% | 1014.3 hPa | 0 mm | - | 199 W/m² | - |
| 1777764873 | 16.67° C | 41% | 1014 hPa | 0 mm | - | 169 W/m² | - |
| 1777764570 | 16.67° C | 41% | 1014.2 hPa | 0 mm | - | 148 W/m² | - |
| 1777764266 | 16.67° C | 41% | 1014 hPa | 0 mm | - | 147 W/m² | - |
* Rain latest hour (hover to see other rain measurements)
** Current wind speed in m/s (hover to see current wind gust speed)